"2010-07-24 00:00:00",8941,3.234,149.7,4.088,0.271,24.64,111.5792,28.95,29.85,13.49,0,111.5,13.05,29.81,111.7
"2010-07-24 00:00:30",8942,3.813,152.9,3.17,0.16,24.61,111.5767,28.95,29.85,13.72,0,111.5,13.05,29.80,114.9
"2010-07-24 00:01:00",8943,3.709,148.5,4.357,0.233,24.6,111.573,28.94,29.83,13.73,0,111.5,13.05,29.79,110.5
"2010-07-24 00:01:30",8944,4.316,151.3,2.077,0.226,24.58,111.5708,28.93,29.82,13.66,0,111.5,13.05,29.79,113.3
"2010-07-24 00:02:00",8945,4.22,150.3,1.928,0.11,24.58,111.5708,28.93,29.83,13.69,0,111.5,13.05,29.79,112.3
"2010-07-24 00:02:30",8946,4.254,149.7,2.454,0.123,24.55,111.5705,28.93,29.82,13.74,0,111.5,13.05,29.79,111.7
"2010-07-24 00:03:00",8947,4.538,144.8,6.586,0.326,24.63,111.5697,28.93,29.82,13.91,0,111.5,13.05,29.78,106.8
"2010-07-24 00:03:30",8948,4.751,133.6,2.004,0.188,24.6,111.5666,28.92,29.81,13.99,0,111.5,13.06,29.78,95.6
"2010-07-24 00:04:00",8949,4.49,136.3,3.173,0.345,24.62,111.5632,28.91,29.81,13.88,0,111.5,13.06,29.77,98.3
"2010-07-24 00:04:30",8950,5.181,144.6,3.989,0.278,24.66,111.5627,28.91,29.81,14.03,0,111.5,13.06,29.76,106.6
"2010-07-24 00:05:00",8951,5.315,140.7,2.205,0.199,24.63,111.5623,28.91,29.81,13.95,0,111.5,13.05,29.76,102.7
"2010-07-24 00:05:30",8952,5.542,139.6,3.437,0.243,24.61,111.5601,28.91,29.82,13.94,0,111.4,13.05,29.76,101.6
"2010-07-24 00:06:00",8953,5.566,139.6,3.92,0.202,24.66,111.5578,28.9,29.8,13.93,0,111.4,13.05,29.75,101.6
"2010-07-24 00:06:30",8954,5.711,133.9,2.088,0.239,24.63,111.5528,28.89,29.8,13.93,0,111.5,13.05,29.74,95.9
"2010-07-24 00:07:00",8955,5.886,142.3,3.082,0.226,24.69,111.5492,28.88,29.8,14.38,0,111.4,13.05,29.73,104.3
"2010-07-24 00:07:30",8956,5.71,136.7,3.477,0.173,24.63,111.5484,28.88,29.79,13.82,0,111.4,13.05,29.73,98.7
"2010-07-24 00:08:00",8957,5.429,130.2,2.335,0.304,24.64,111.5471,28.87,29.79,13.73,0,111.4,13.05,29.72,92.2
"2010-07-24 00:08:30",8958,6.197,127,2.021,0.268,24.65,111.5505,28.88,29.79,13.75,0,111.4,13.05,29.73,89.0
"2010-07-24 00:09:00",8959,6.324,130.4,1.952,0.28,24.64,111.5476,28.87,29.78,13.62,0,111.4,13.05,29.73,92.4
"2010-07-24 00:09:30",8960,6.499,130.8,2.346,0.186,24.64,111.549,28.88,29.76,13.48,0,111.4,13.05,29.73,92.8
"2010-07-24 00:10:00",8961,6.001,129.2,2.462,0.182,24.69,111.5503,28.88,29.78,13.47,0,111.4,13.05,29.73,91.2
"2010-07-24 00:10:30",8962,6.083,129.4,2.689,0.227,24.68,111.5519,28.88,29.77,13.54,0,111.4,13.05,29.74,91.4
"2010-07-24 00:11:00",8963,6.013,130.3,2.273,0.245,24.66,111.5556,28.89,29.78,13.45,0,111.4,13.06,29.75,92.3
"2010-07-24 00:11:30",8964,5.752,136,1.142,0.096,24.71,111.5587,28.9,29.77,13.42,0,111.4,13.06,29.75,98.0
"2010-07-24 00:12:00",8965,5.58,133.4,0.886,0.108,24.67,111.5612,28.91,29.78,13.32,0,111.4,13.06,29.76,95.4
"2010-07-24 00:12:30",8966,5.416,131.9,0.87,0.149,24.62,111.5612,28.91,29.78,13.36,0,111.4,13.06,29.76,93.9
"2010-07-24 00:13:00",8967,5.181,130.9,0.891,0.184,24.6,111.5628,28.91,29.78,13.41,0,111.4,13.06,29.77,92.9
"2010-07-24 00:13:30",8968,4.921,132.4,1.063,0.06,24.64,111.5641,28.92,29.79,13.49,0,111.4,13.06,29.77,94.4
"2010-07-24 00:14:00",8969,4.799,134.1,0.545,0.071,24.66,111.5664,28.92,29.78,13.54,0,111.4,13.06,29.77,96.1
"2010-07-24 00:14:30",8970,4.687,131.8,0.698,0.099,24.66,111.5664,28.92,29.78,13.48,0,111.4,13.06,29.77,93.8
"2010-07-24 00:15:00",8971,4.682,132.7,0.937,0.123,24.66,111.5684,28.93,29.79,13.35,0,111.4,13.06,29.78,94.7
"2010-07-24 00:15:30",8972,4.595,133.2,1.085,0.103,24.67,111.5684,28.93,29.79,13.34,0,111.4,13.06,29.78,95.2
"2010-07-24 00:16:00",8973,4.623,131.3,0.915,0.12,24.66,111.5704,28.93,29.79,13.31,0,111.4,13.06,29.78,93.3
"2010-07-24 00:16:30",8974,4.504,132,1.266,0.13,24.67,111.5704,28.93,29.79,13.29,0,111.4,13.06,29.78,94.0
"2010-07-24 00:17:00",8975,4.586,131.4,0.573,0.087,24.68,111.5712,28.93,29.81,13.29,0,111.4,13.06,29.79,93.4
"2010-07-24 00:17:30",8976,4.61,133.5,1.044,0.104,24.63,111.5695,28.93,29.8,13.34,0,111.4,13.06,29.78,95.5
"2010-07-24 00:18:00",8977,4.6,137.2,1.095,0.063,24.66,111.5687,28.93,29.79,13.25,0,111.4,13.06,29.78,99.2
"2010-07-24 00:18:30",8978,4.637,136.3,1.27,0.089,24.64,111.567,28.92,29.81,13.19,0,111.4,13.06,29.78,98.3
"2010-07-24 00:19:00",8979,4.594,137.9,1.104,0.131,24.69,111.5653,28.92,29.8,13.28,0,111.4,13.06,29.77,99.9
"2010-07-24 00:19:30",8980,4.554,137.4,1.734,0.246,24.64,111.5672,28.92,29.8,13.29,0,111.4,13.06,29.78,99.4
"2010-07-24 00:20:00",8981,4.533,132.9,2.237,0.147,24.65,111.5684,28.93,29.8,13.32,0,111.4,13.06,29.78,94.9
"2010-07-24 00:20:30",8982,4.441,131.7,1.173,0.103,24.63,111.5687,28.93,29.8,13.3,0,111.4,13.06,29.78,93.7
"2010-07-24 00:21:00",8983,4.696,136.1,2.124,0.196,24.63,111.5679,28.93,29.81,13.3,0,111.4,13.06,29.78,98.1
"2010-07-24 00:21:30",8984,4.723,135.9,1.816,0.199,24.66,111.5686,28.93,29.8,13.28,0,111.4,13.06,29.78,97.9
"2010-07-24 00:22:00",8985,4.529,133.8,1.501,0.203,24.63,111.5712,28.93,29.79,13.25,0,111.4,13.06,29.79,95.8
"2010-07-24 00:22:30",8986,4.272,133.9,1.769,0.12,24.64,111.5672,28.92,29.79,13.22,0,111.4,13.06,29.78,95.9
"2010-07-24 00:23:00",8987,4.541,131.1,2.454,0.213,24.67,111.5609,28.91,29.78,13.24,0,111.4,13.06,29.76,93.1
"2010-07-24 00:23:30",8988,5.198,129.3,2.096,0.127,24.74,111.5612,28.91,29.78,13.4,0,111.4,13.06,29.76,91.3
"2010-07-24 00:24:00",8989,5.023,130.6,1.25,0.239,24.77,111.5671,28.92,29.78,13.28,0,111.4,13.06,29.78,92.6
"2010-07-24 00:24:30",8990,4.94,124.8,3.014,0.307,24.75,111.5711,28.93,29.78,13.21,0,111.4,13.06,29.79,86.8
"2010-07-24 00:25:00",8991,4.311,130.2,2.501,0.199,24.76,111.5722,28.94,29.77,13.29,0,111.4,13.06,29.79,92.2
"2010-07-24 00:25:30",8992,4.342,124.4,1.973,0.226,24.76,111.5722,28.94,29.79,13.05,0,111.4,13.05,29.79,86.4
"2010-07-24 00:26:00",8993,4.085,121.1,2.416,0.17,24.73,111.5741,28.94,29.8,13.21,0,111.4,13.05,29.79,83.1
"2010-07-24 00:26:30",8994,4.436,126.6,5.37,0.126,24.69,111.5741,28.94,29.81,13.31,0,111.4,13.06,29.79,88.6
"2010-07-24 00:27:00",8995,4.503,127.1,1.634,0.221,24.73,111.5733,28.94,29.81,13.42,0,111.4,13.06,29.79,89.1
"2010-07-24 00:27:30",8996,4.517,128.4,1.911,0.139,24.69,111.5736,28.94,29.81,13.41,0,111.4,13.06,29.79,90.4
"2010-07-24 00:28:00",8997,4.58,126.7,1.385,0.117,24.71,111.5727,28.94,29.82,13.25,0,111.4,13.06,29.79,88.7
"2010-07-24 00:28:30",8998,4.338,127.9,2.145,0.092,24.71,111.573,28.94,29.8,13.22,0,111.4,13.06,29.79,89.9
"2010-07-24 00:29:00",8999,4.185,129.6,1.092,0.082,24.73,111.5733,28.94,29.81,13.05,0,111.4,13.06,29.79,91.6
"2010-07-24 00:29:30",9000,4.258,127.3,1.293,0.1,24.7,111.5747,28.94,29.82,12.98,0,111.4,13.06,29.80,89.3
"2010-07-24 00:30:00",9001,4.364,125.6,1.451,0.104,24.73,111.5747,28.94,29.83,12.98,0,111.4,13.06,29.80,87.6
"2010-07-24 00:30:30",9002,4.424,128.1,1.749,0.114,24.72,111.5747,28.94,29.83,12.97,0,111.4,13.06,29.80,90.1
"2010-07-24 00:31:00",9003,4.252,125.7,2.117,0.226,24.67,111.5747,28.94,29.82,12.95,0,111.4,13.06,29.80,87.7
"2010-07-24 00:31:30",9004,3.939,126.3,2.699,0.177,24.66,111.575,28.94,29.83,12.96,0,111.4,13.06,29.80,88.3
"2010-07-24 00:32:00",9005,4.443,130.4,0.896,0.145,24.68,111.5747,28.94,29.82,12.94,0,111.4,13.06,29.80,92.4
"2010-07-24 00:32:30",9006,4.301,132.1,1.217,0.128,24.73,111.5763,28.95,29.84,12.93,0,111.4,13.06,29.80,94.1
"2010-07-24 00:33:00",9007,4.614,132.4,0.949,0.082,24.73,111.5766,28.95,29.83,12.94,0,111.4,13.07,29.80,94.4
"2010-07-24 00:33:30",9008,4.41,129.8,1.003,0.128,24.73,111.5772,28.95,29.83,12.94,0,111.4,13.07,29.80,91.8
"2010-07-24 00:34:00",9009,4.364,129.4,2.414,0.106,24.74,111.5763,28.95,29.84,12.94,0,111.4,13.07,29.80,91.4
"2010-07-24 00:34:30",9010,4.377,130,2.274,0.136,24.74,111.5775,28.95,29.85,12.95,0,111.4,13.06,29.80,92.0
"2010-07-24 00:35:00",9011,4.108,134.1,1.061,0.085,24.72,111.5803,28.96,29.85,13.01,0,111.4,13.07,29.81,96.1
"2010-07-24 00:35:30",9012,4.226,133.2,1.463,0.099,24.74,111.5797,28.96,29.86,13,0,111.4,13.07,29.81,95.2
"2010-07-24 00:36:00",9013,4.286,130.1,1.31,0.155,24.73,111.5809,28.96,29.85,12.99,0,111.4,13.07,29.81,92.1
"2010-07-24 00:36:30",9014,3.908,127.5,2.447,0.115,24.7,111.5791,28.95,29.84,12.97,0,111.4,13.07,29.81,89.5
"2010-07-24 00:37:00",9015,4.104,128.7,2.045,0.323,24.73,111.5775,28.95,29.85,13.03,0,111.4,13.07,29.80,90.7
"2010-07-24 00:37:30",9016,4.41,129.1,1.187,0.092,24.67,111.5788,28.95,29.85,13.26,0,111.4,13.07,29.81,91.1
"2010-07-24 00:38:00",9017,4.213,129.2,1.217,0.181,24.67,111.5764,28.95,29.85,13.23,0,111.4,13.07,29.80,91.2
"2010-07-24 00:38:30",9018,3.876,129.5,2.455,0.088,24.75,111.5741,28.94,29.85,13.17,0,111.4,13.07,29.79,91.5
"2010-07-24 00:39:00",9019,3.908,132.1,1.982,0.149,24.72,111.5746,28.94,29.84,13.07,0,111.4,13.07,29.80,94.1
"2010-07-24 00:39:30",9020,4.188,129.7,1.373,0.094,24.74,111.5753,28.94,29.84,12.98,0,111.4,13.06,29.80,91.7
"2010-07-24 00:40:00",9021,3.974,128.4,2.079,0.087,24.77,111.5762,28.95,29.85,12.98,0,111.4,13.06,29.80,90.4
"2010-07-24 00:40:30",9022,3.674,127.6,1.96,0.084,24.71,111.5769,28.95,29.85,13.02,0,111.4,13.06,29.80,89.6
"2010-07-24 00:41:00",9023,3.74,132.8,1.955,0.098,24.78,111.5794,28.96,29.83,12.99,0,111.4,13.06,29.81,94.8
"2010-07-24 00:41:30",9024,3.881,130,1.701,0.097,24.75,111.5817,28.96,29.84,13.09,0,111.4,13.06,29.81,92.0
"2010-07-24 00:42:00",9025,3.731,132.3,1.688,0.085,24.75,111.5826,28.96,29.84,13.13,0,111.4,13.06,29.82,94.3
"2010-07-24 00:42:30",9026,3.649,132.1,2.842,0.122,24.77,111.5824,28.96,29.84,13.08,0,111.4,13.06,29.82,94.1
"2010-07-24 00:43:00",9027,4.037,131.5,1.083,0.153,24.78,111.5795,28.96,29.83,12.93,0,111.4,13.06,29.81,93.5
"2010-07-24 00:43:30",9028,4.203,133.3,1.042,0.105,24.77,111.59,28.98,29.84,12.91,0,111.4,13.06,29.84,95.3
"2010-07-24 00:44:00",9029,4.148,136.9,1.939,0.107,24.78,111.5915,28.99,29.84,13.02,0,111.4,13.06,29.84,98.9
"2010-07-24 00:44:30",9030,3.999,137.3,0.801,0.084,24.78,111.588,28.98,29.84,13.07,0,111.4,13.06,29.83,99.3
"2010-07-24 00:45:00",9031,3.945,135.8,1.31,0.086,24.78,111.5867,28.97,29.83,13.03,0,111.4,13.07,29.83,97.8
"2010-07-24 00:45:30",9032,3.919,136.4,0.973,0.084,24.77,111.5808,28.96,29.83,13.03,0,111.4,13.07,29.81,98.4
"2010-07-24 00:46:00",9033,3.816,137.2,2.261,0.09,24.79,111.58,28.96,29.83,13.03,0,111.4,13.07,29.81,99.2
"2010-07-24 00:46:30",9034,3.925,138,1.441,0.157,24.77,111.5785,28.95,29.84,13.01,0,111.4,13.07,29.81,100.0
"2010-07-24 00:47:00",9035,4.125,139.2,1.826,0.174,24.75,111.5784,28.95,29.83,13.08,0,111.4,13.07,29.81,101.2
"2010-07-24 00:47:30",9036,4.029,139.5,1.489,0.121,24.76,111.5787,28.95,29.83,13.03,0,111.4,13.07,29.81,101.5
"2010-07-24 00:48:00",9037,4.117,137.5,1.724,0.097,24.78,111.5779,28.95,29.84,13.06,0,111.4,13.07,29.80,99.5
"2010-07-24 00:48:30",9038,3.916,133.9,2.893,0.135,24.77,111.5796,28.96,29.83,13,0,111.4,13.07,29.81,95.9
"2010-07-24 00:49:00",9039,4.151,124.7,2.304,0.129,24.76,111.579,28.95,29.83,12.91,0,111.4,13.07,29.81,86.7
"2010-07-24 00:49:30",9040,4.366,129,2.116,0.082,24.74,111.5816,28.96,29.82,12.92,0,111.4,13.07,29.81,91.0
"2010-07-24 00:50:00",9041,4.189,130.5,1.039,0.181,24.75,111.581,28.96,29.83,12.93,0,111.4,13.08,29.81,92.5
"2010-07-24 00:50:30",9042,3.95,131.5,1.86,0.096,24.78,111.582,28.96,29.84,12.9,0,111.4,13.07,29.81,93.5
"2010-07-24 00:51:00",9043,3.897,130.8,1.638,0.179,24.76,111.5817,28.96,29.84,12.9,0,111.4,13.07,29.81,92.8
"2010-07-24 00:51:30",9044,4.198,129.4,1.227,0.21,24.76,111.5803,28.96,29.84,12.88,0,111.4,13.08,29.81,91.4
"2010-07-24 00:52:00",9045,3.659,127.7,1.74,0.173,24.73,111.5834,28.97,29.83,12.83,0,111.4,13.08,29.82,89.7
"2010-07-24 00:52:30",9046,3.957,135.3,2.8,0.163,24.77,111.5808,28.96,29.85,12.92,0,111.4,13.08,29.81,97.3
"2010-07-24 00:53:00",9047,4.08,137.6,3.001,0.108,24.74,111.5793,28.95,29.83,12.96,0,111.4,13.08,29.81,99.6
"2010-07-24 00:53:30",9048,4.138,135.5,1.68,0.108,24.79,111.5796,28.96,29.84,13,0,111.4,13.08,29.81,97.5
"2010-07-24 00:54:00",9049,4.331,137.4,2.35,0.072,24.75,111.5751,28.94,29.84,12.96,0,111.4,13.08,29.80,99.4
"2010-07-24 00:54:30",9050,4.31,135.7,2.007,0.068,24.77,111.5751,28.94,29.83,12.89,0,111.4,13.08,29.80,97.7
"2010-07-24 00:55:00",9051,4.306,132.7,2.937,0.172,24.79,111.5785,28.95,29.84,12.85,0,111.4,13.08,29.81,94.7
"2010-07-24 00:55:30",9052,4.009,126.6,3.186,0.119,24.75,111.5801,28.96,29.85,12.89,0,111.4,13.08,29.81,88.6
"2010-07-24 00:56:00",9053,4.319,116.2,2.559,0.257,24.77,111.5822,28.96,29.85,12.91,0,111.4,13.08,29.82,78.2
"2010-07-24 00:56:30",9054,4.238,119.4,5.679,0.172,24.72,111.5833,28.97,29.84,12.88,0,111.4,13.07,29.82,81.4
"2010-07-24 00:57:00",9055,4.367,132.1,3.03,0.097,24.62,111.5816,28.96,29.84,12.81,0,111.4,13.07,29.81,94.1
"2010-07-24 00:57:30",9056,4.562,134.4,2.582,0.124,24.6,111.5797,28.96,29.83,12.82,0,111.4,13.06,29.81,96.4
"2010-07-24 00:58:00",9057,4.234,130.8,1.194,0.136,24.55,111.5803,28.96,29.84,12.76,0,111.4,13.06,29.81,92.8
"2010-07-24 00:58:30",9058,4.062,132.1,1.149,0.156,24.57,111.5817,28.96,29.85,12.75,0,111.4,13.07,29.81,94.1
"2010-07-24 00:59:00",9059,4.161,133.5,0.92,0.101,24.6,111.5845,28.97,29.86,12.78,0,111.4,13.07,29.82,95.5
"2010-07-24 00:59:30",9060,3.904,133.6,1.436,0.085,24.55,111.5853,28.97,29.86,12.77,0,111.4,13.07,29.82,95.6
"2010-07-24 01:00:00",9061,4.051,131.2,1.158,0.079,24.53,111.5853,28.97,29.85,12.75,0,111.4,13.07,29.82,93.2
"2010-07-24 01:00:30",9062,4.091,135.5,1.209,0.072,24.6,111.585,28.97,29.85,12.87,0,111.4,13.07,29.82,97.5
"2010-07-24 01:01:00",9063,4.425,132.5,2.426,0.209,24.63,111.5819,28.96,29.85,12.77,0,111.4,13.07,29.81,94.5
"2010-07-24 01:01:30",9064,4.361,132.1,1.316,0.183,24.72,111.5814,28.96,29.85,12.79,0,111.4,13.07,29.81,94.1
"2010-07-24 01:02:00",9065,4.293,133.1,1.398,0.116,24.67,111.5797,28.96,29.86,12.89,0,111.4,13.07,29.81,95.1
"2010-07-24 01:02:30",9066,4.375,134,0.857,0.101,24.68,111.5786,28.95,29.84,13.07,0,111.4,13.08,29.81,96.0
"2010-07-24 01:03:00",9067,4.224,132.2,1.266,0.092,24.7,111.5786,28.95,29.83,13.05,0,111.4,13.08,29.81,94.2
"2010-07-24 01:03:30",9068,4.159,130.6,1.159,0.115,24.72,111.5786,28.95,29.84,12.87,0,111.4,13.08,29.81,92.6
"2010-07-24 01:04:00",9069,4.02,131.9,1.403,0.147,24.72,111.5786,28.95,29.84,12.89,0,111.4,13.08,29.81,93.9
"2010-07-24 01:04:30",9070,4.179,130.3,2.179,0.147,24.71,111.5786,28.95,29.84,12.87,0,111.4,13.08,29.81,92.3
"2010-07-24 01:05:00",9071,4.485,129.3,0.879,0.048,24.67,111.5777,28.95,29.83,12.98,0,111.4,13.08,29.80,91.3
"2010-07-24 01:05:30",9072,4.376,130.3,0.796,0.076,24.69,111.5755,28.95,29.83,13.11,0,111.4,13.08,29.80,92.3
"2010-07-24 01:06:00",9073,4.42,130.2,0.81,0.102,24.72,111.5643,28.92,29.83,13.21,0,111.4,13.08,29.77,92.2
"2010-07-24 01:06:30",9074,4.454,130.9,0.507,0.076,24.74,111.5548,28.89,29.82,13.01,0,111.4,13.08,29.74,92.9
"2010-07-24 01:07:00",9075,4.404,129.3,0.955,0.107,24.67,111.5528,28.89,29.82,13.06,0,111.4,13.08,29.74,91.3
"2010-07-24 01:07:30",9076,4.36,129.4,0.591,0.074,24.66,111.5525,28.89,29.81,12.88,0,111.4,13.08,29.74,91.4
"2010-07-24 01:08:00",9077,4.361,129.8,0.974,0.062,24.64,111.5514,28.88,29.8,12.92,0,111.4,13.08,29.74,91.8
"2010-07-24 01:08:30",9078,4.425,132.3,1.033,0.05,24.78,111.5469,28.87,29.81,12.86,0,111.4,13.08,29.72,94.3
"2010-07-24 01:09:00",9079,4.409,134.3,0.511,0.062,24.71,111.5463,28.87,29.78,12.79,0,111.4,13.08,29.72,96.3
"2010-07-24 01:09:30",9080,4.211,134.2,1.06,0.069,24.74,111.5469,28.87,29.8,12.77,0,111.4,13.08,29.72,96.2
"2010-07-24 01:10:00",9081,4.121,134.1,0.926,0.038,24.73,111.548,28.87,29.78,12.81,0,111.4,13.08,29.73,96.1
"2010-07-24 01:10:30",9082,4.171,132,1.005,0.087,24.67,111.5472,28.87,29.79,13.02,0,111.4,13.08,29.72,94.0
"2010-07-24 01:11:00",9083,4.137,131.7,0.843,0.089,24.68,111.5452,28.87,29.79,13.05,0,111.4,13.08,29.72,93.7
"2010-07-24 01:11:30",9084,4.09,131.7,1.28,0.107,24.68,111.5449,28.87,29.79,13.08,0,111.4,13.08,29.72,93.7
"2010-07-24 01:12:00",9085,4.209,131.7,1.286,0.077,24.72,111.5449,28.87,29.79,12.91,0,111.4,13.08,29.72,93.7
"2010-07-24 01:12:30",9086,4.27,130.5,0.48,0.038,24.72,111.5449,28.87,29.78,12.79,0,111.4,13.08,29.72,92.5
"2010-07-24 01:13:00",9087,4.143,132.2,1.93,0.071,24.75,111.5449,28.87,29.79,12.84,0,111.4,13.08,29.72,94.2
"2010-07-24 01:13:30",9088,4.072,133.9,1.977,0.081,24.79,111.5449,28.87,29.79,12.98,0,111.4,13.08,29.72,95.9
"2010-07-24 01:14:00",9089,4.052,133.6,1.38,0.06,24.75,111.5449,28.87,29.78,13.02,0,111.4,13.08,29.72,95.6
"2010-07-24 01:14:30",9090,3.927,135.1,0.763,0.064,24.77,111.5449,28.87,29.77,13.06,0,111.4,13.07,29.72,97.1
"2010-07-24 01:15:00",9091,3.909,134.6,1.101,0.093,24.75,111.5449,28.87,29.78,13.09,0,111.4,13.07,29.72,96.6
"2010-07-24 01:15:30",9092,4.031,133.3,1.097,0.107,24.73,111.5449,28.87,29.77,12.97,0,111.4,13.07,29.72,95.3
"2010-07-24 01:16:00",9093,4.196,133.7,0.84,0.079,24.79,111.5449,28.87,29.78,12.86,0,111.4,13.07,29.72,95.7
"2010-07-24 01:16:30",9094,4.001,135,1,0.062,24.8,111.5449,28.87,29.77,12.95,0,111.4,13.07,29.72,97.0
"2010-07-24 01:17:00",9095,3.966,131.3,1.564,0.046,24.77,111.5449,28.87,29.77,12.79,0,111.4,13.07,29.72,93.3
"2010-07-24 01:17:30",9096,4.048,129.6,0.474,0.038,24.77,111.5449,28.87,29.78,12.69,0,111.4,13.07,29.72,91.6
"2010-07-24 01:18:00",9097,4.106,130.7,0.59,0.046,24.75,111.5456,28.87,29.77,12.67,0,111.4,13.07,29.72,92.7
"2010-07-24 01:18:30",9098,4.161,132.1,0.844,0.035,24.76,111.5456,28.87,29.78,12.77,0,111.4,13.08,29.72,94.1
"2010-07-24 01:19:00",9099,4.122,134.5,2.089,0.084,24.86,111.5462,28.87,29.79,12.78,0,111.4,13.08,29.72,96.5
"2010-07-24 01:19:30",9100,4.089,136.8,1.028,0.05,24.85,111.5468,28.87,29.77,12.82,0,111.4,13.08,29.72,98.8
"2010-07-24 01:20:00",9101,4.061,136.9,0.717,0.033,24.88,111.5487,28.88,29.78,12.99,0,111.4,13.08,29.73,98.9
"2010-07-24 01:20:30",9102,4.192,134.6,1.119,0.054,24.88,111.5478,28.87,29.79,12.9,0,111.3,13.08,29.73,96.6
"2010-07-24 01:21:00",9103,4.205,136,1.094,0.054,24.83,111.5503,28.88,29.77,12.81,0,111.4,13.08,29.73,98.0
"2010-07-24 01:21:30",9104,4.199,136.3,0.831,0.062,24.84,111.5512,28.88,29.78,12.75,0,111.3,13.08,29.74,98.3
"2010-07-24 01:22:00",9105,4.152,135,1.426,0.065,24.85,111.5547,28.89,29.79,12.73,0,111.4,13.08,29.74,97.0
"2010-07-24 01:22:30",9106,4.097,133.6,1.003,0.047,24.82,111.5562,28.9,29.78,12.76,0,111.4,13.08,29.75,95.6
"2010-07-24 01:23:00",9107,3.968,134.5,0.87,0.07,24.84,111.5596,28.9,29.77,12.73,0,111.4,13.08,29.76,96.5
"2010-07-24 01:23:30",9108,4.118,135.7,0.565,0.049,24.98,111.5631,28.91,29.78,12.73,0,111.3,13.08,29.77,97.7
"2010-07-24 01:24:00",9109,4.082,133.4,1.374,0.035,24.85,111.565,28.92,29.78,12.72,0,111.3,13.08,29.77,95.4
"2010-07-24 01:24:30",9110,4.102,131.5,0.258,0.027,24.81,111.5662,28.92,29.79,12.63,0,111.3,13.08,29.77,93.5
"2010-07-24 01:25:00",9111,4.09,132.2,0.562,0.052,24.81,111.5681,28.93,29.78,12.66,0,111.3,13.08,29.78,94.2
"2010-07-24 01:25:30",9112,4.082,131.4,0.34,0.034,24.83,111.5712,28.93,29.78,12.63,0,111.4,13.08,29.79,93.4
"2010-07-24 01:26:00",9113,4.128,131.1,0.492,0.027,24.79,111.5715,28.93,29.79,12.6,0,111.3,13.08,29.79,93.1
"2010-07-24 01:26:30",9114,4.029,131.5,0.304,0.052,24.8,111.5725,28.94,29.78,12.57,0,111.3,13.08,29.79,93.5
"2010-07-24 01:27:00",9115,3.977,131,0.402,0.028,24.81,111.5718,28.94,29.79,12.57,0,111.3,13.08,29.79,93.0
"2010-07-24 01:27:30",9116,4.234,133.5,0.551,0.077,24.99,111.5731,28.94,29.78,12.55,0,111.3,13.08,29.79,95.5
"2010-07-24 01:28:00",9117,4.159,133.4,0.651,0.056,24.91,111.5731,28.94,29.79,12.53,0,111.3,13.09,29.79,95.4
"2010-07-24 01:28:30",9118,4.199,134.8,0.32,0.033,24.99,111.5731,28.94,29.8,12.5,0,111.3,13.08,29.79,96.8
"2010-07-24 01:29:00",9119,4.124,134.4,0.503,0.028,24.98,111.5731,28.94,29.81,12.51,0,111.3,13.09,29.79,96.4
"2010-07-24 01:29:30",9120,4.121,134,0.488,0.028,24.9,111.5731,28.94,29.79,12.5,0,111.3,13.08,29.79,96.0
"2010-07-24 01:30:00",9121,4.083,132.8,0.663,0.05,24.82,111.5711,28.93,29.8,12.5,0,111.3,13.08,29.79,94.8
"2010-07-24 01:30:30",9122,4.028,132,0.547,0.03,24.77,111.5697,28.93,29.79,12.51,0,111.3,13.08,29.78,94.0
"2010-07-24 01:31:00",9123,4.041,130.4,0.681,0.055,24.81,111.5683,28.93,29.8,12.59,0,111.3,13.08,29.78,92.4
"2010-07-24 01:31:30",9124,4.014,131.5,0.882,0.031,24.77,111.5661,28.92,29.78,12.61,0,111.3,13.08,29.77,93.5
"2010-07-24 01:32:00",9125,4.042,132.2,0.752,0.093,24.79,111.5625,28.91,29.78,12.59,0,111.4,13.08,29.76,94.2
"2010-07-24 01:32:30",9126,4.144,132.9,0.682,0.046,24.86,111.5566,28.9,29.79,12.62,0,111.3,13.08,29.75,94.9
"2010-07-24 01:33:00",9127,4.176,132.8,0.586,0.037,24.9,111.5518,28.88,29.76,12.56,0,111.3,13.08,29.74,94.8
"2010-07-24 01:33:30",9128,4.196,133.6,0.981,0.065,24.91,111.5516,28.88,29.77,12.56,0,111.3,13.08,29.74,95.6
"2010-07-24 01:34:00",9129,4.107,132.5,1.676,0.067,24.82,111.5477,28.87,29.75,12.63,0,111.3,13.08,29.73,94.5
"2010-07-24 01:34:30",9130,4.193,135.3,0.9,0.074,24.9,111.5469,28.87,29.75,12.74,0,111.3,13.08,29.72,97.3
"2010-07-24 01:35:00",9131,4.355,135.6,0.425,0.044,24.81,111.5479,28.87,29.75,12.66,0,111.3,13.08,29.73,97.6
"2010-07-24 01:35:30",9132,4.299,136.3,0.54,0.043,24.8,111.5479,28.87,29.73,12.62,0,111.3,13.08,29.73,98.3
"2010-07-24 01:36:00",9133,4.226,137.2,0.329,0.042,24.84,111.5485,28.88,29.74,12.65,0,111.3,13.08,29.73,99.2
"2010-07-24 01:36:30",9134,4.183,137.2,0.344,0.033,24.84,111.5471,28.87,29.73,12.69,0,111.3,13.08,29.72,99.2
"2010-07-24 01:37:00",9135,4.183,137,0.219,0.032,24.87,111.5449,28.87,29.73,12.7,0,111.3,13.08,29.72,99.0
"2010-07-24 01:37:30",9136,4.22,136.7,0.612,0.042,24.87,111.5365,28.84,29.73,12.7,0,111.3,13.09,29.70,98.7
"2010-07-24 01:38:00",9137,4.272,136.2,0.952,0.06,24.85,111.5311,28.83,29.71,12.68,0,111.3,13.09,29.68,98.2
"2010-07-24 01:38:30",9138,4.431,137.2,0.361,0.028,24.78,111.5258,28.82,29.71,12.68,0,111.3,13.09,29.67,99.2
"2010-07-24 01:39:00",9139,4.429,139.1,0.621,0.047,24.99,111.5252,28.82,29.72,12.7,0,111.3,13.09,29.67,101.1
"2010-07-24 01:39:30",9140,4.282,140,0.847,0.042,24.9,111.5244,28.81,29.71,12.64,0,111.3,13.09,29.67,102.0
"2010-07-24 01:40:00",9141,4.229,141.6,0.837,0.038,24.93,111.5264,28.82,29.7,12.69,0,111.3,13.09,29.67,103.6
"2010-07-24 01:40:30",9142,4.25,141.1,1.072,0.09,24.94,111.5325,28.83,29.7,12.75,0,111.3,13.09,29.69,103.1
"2010-07-24 01:41:00",9143,4.237,140.2,0.915,0.065,24.88,111.5348,28.84,29.7,12.74,0,111.3,13.09,29.69,102.2
"2010-07-24 01:41:30",9144,4.28,141.9,1.054,0.069,24.98,111.5362,28.84,29.72,12.77,0,111.3,13.09,29.70,103.9
"2010-07-24 01:42:00",9145,4.19,141.3,0.705,0.035,24.88,111.5365,28.84,29.71,12.78,0,111.3,13.09,29.70,103.3
"2010-07-24 01:42:30",9146,4.358,140.6,0.849,0.062,25.02,111.5328,28.84,29.71,12.8,0,111.3,13.09,29.69,102.6
"2010-07-24 01:43:00",9147,4.283,141.1,0.427,0.04,24.94,111.5323,28.83,29.71,12.78,0,111.3,13.09,29.69,103.1
"2010-07-24 01:43:30",9148,4.284,142.3,0.503,0.022,25.04,111.5317,28.83,29.71,12.82,0,111.3,13.09,29.68,104.3
"2010-07-24 01:44:00",9149,4.259,142.6,0.479,0.035,24.98,111.5283,28.82,29.72,12.83,0,111.3,13.09,29.68,104.6
"2010-07-24 01:44:30",9150,4.229,142.8,0.582,0.045,24.99,111.5264,28.82,29.72,12.82,0,111.3,13.09,29.67,104.8
"2010-07-24 01:45:00",9151,4.164,142.6,0.455,0.033,24.9,111.5264,28.82,29.72,12.82,0,111.3,13.09,29.67,104.6
"2010-07-24 01:45:30",9152,4.088,141.8,0.416,0.041,24.77,111.5236,28.81,29.72,12.82,0,111.3,13.09,29.66,103.8
"2010-07-24 01:46:00",9153,4.04,141.9,0.618,0.036,24.77,111.5238,28.81,29.7,12.83,0,111.3,13.09,29.66,103.9
"2010-07-24 01:46:30",9154,4.131,139.9,1.125,0.044,24.81,111.5236,28.81,29.72,12.82,0,111.3,13.09,29.66,101.9
"2010-07-24 01:47:00",9155,4.154,139.5,0.899,0.037,24.87,111.5236,28.81,29.73,12.77,0,111.3,13.09,29.66,101.5
"2010-07-24 01:47:30",9156,4.059,138.3,1.006,0.053,24.93,111.5236,28.81,29.72,12.78,0,111.3,13.09,29.66,100.3
"2010-07-24 01:48:00",9157,4.033,138.9,0.733,0.054,24.89,111.5239,28.81,29.72,12.77,0,111.3,13.09,29.66,100.9
"2010-07-24 01:48:30",9158,4.028,139.6,0.431,0.04,24.85,111.5239,28.81,29.72,12.77,0,111.3,13.09,29.66,101.6
"2010-07-24 01:49:00",9159,3.984,138.5,0.899,0.046,24.99,111.5236,28.81,29.72,12.79,0,111.3,13.09,29.66,100.5
"2010-07-24 01:49:30",9160,4.163,135.4,1.337,0.043,25,111.5214,28.81,29.71,12.74,0,111.3,13.09,29.66,97.4
"2010-07-24 01:50:00",9161,4.244,134.6,0.506,0.029,25.04,111.5174,28.8,29.73,12.7,0,111.3,13.08,29.65,96.6